Tracking 17925 objects as of 24-January-2017
HD Live streaming from Space Station
objects crossing your sky now

YAOGAN 14

Track YAOGAN 14 now!
10-day predictions
YAOGAN 14 is classified as:


NORAD ID: 38257
Int'l Code: 2012-021A
Perigee: 476.2 km
Apogee: 488.6 km
Inclination: 97.3 °
Period: 94.1 minutes
Semi major axis: 6853 km
RCS: 5.8167 m2 (large)
Launch date: May 10, 2012
Source: People's Republic of China (PRC)
Launch site: Taiyaun Space Center, China (TSC)

YAOGAN 14 (Remote Sensing Satellite 14) is an optical reconnaisance satellite.
Your satellite tracking list
Your tracking list is empty





NASA's NSSDC Master Catalog

Two Line Element Set (TLE):
1 38257U 12021A   17024.09333892  .00002007  00000-0  71226-4 0  9993
2 38257  97.2844 156.1584 0008999 108.5806 336.8441 15.30180968263027
Source of the keplerian elements: AFSPC